Time,TemperatureF,DewpointF,PressureIn,WindDirection,WindDirectionDegrees,WindSpeedMPH,WindSpeedGustMPH,Humidity,HourlyPrecipIn,Conditions,Clouds,dailyrainin,SoftwareType,DateUTC
2013-03-24 00:00:00,32.4,25.7,30.04,ENE,67,4.0,14.0,76,0.00,,CLR,0.00,VWS V14.01,2013-03-24 05:00:00,
2013-03-24 00:04:00,32.4,25.7,30.03,NE,56,11.0,14.0,76,0.00,,,0.00,VWS V14.01,2013-03-24 05:04:00,
2013-03-24 00:09:00,32.4,25.7,30.03,ENE,59,8.0,8.0,76,0.00,,,0.00,VWS V14.01,2013-03-24 05:09:00,
2013-03-24 00:10:00,32.4,25.7,30.03,ENE,60,6.0,14.0,76,0.00,,CLR,0.00,VWS V14.01,2013-03-24 05:10:00,
2013-03-24 00:14:00,32.4,25.7,30.03,East,79,5.0,14.0,76,0.00,,,0.00,VWS V14.01,2013-03-24 05:14:00,
2013-03-24 00:20:00,32.4,25.7,30.03,NE,54,6.0,13.0,76,0.00,,,0.00,VWS V14.01,2013-03-24 05:20:00,
2013-03-24 00:25:00,32.4,25.7,30.03,ENE,64,5.0,13.0,76,0.00,,,0.00,VWS V14.01,2013-03-24 05:25:00,
2013-03-24 00:30:00,32.4,25.7,30.02,East,80,10.0,10.0,76,0.00,,,0.00,VWS V14.01,2013-03-24 05:30:00,
2013-03-24 00:35:00,32.3,25.3,30.02,NE,46,7.0,19.0,75,0.00,,,0.00,VWS V14.01,2013-03-24 05:35:00,
2013-03-24 00:40:00,32.4,25.4,30.02,ENE,61,6.0,11.0,75,0.00,,,0.00,VWS V14.01,2013-03-24 05:40:00,
2013-03-24 00:46:00,32.4,25.4,30.01,ENE,71,5.0,12.0,75,0.00,,,0.00,VWS V14.01,2013-03-24 05:46:00,
2013-03-24 00:50:00,32.4,25.4,30.01,ENE,68,7.0,12.0,75,0.00,,CLR,0.00,VWS V14.01,2013-03-24 05:50:00,
2013-03-24 00:51:00,32.4,25.4,30.01,East,96,10.0,16.0,75,0.00,,,0.00,VWS V14.01,2013-03-24 05:51:00,
2013-03-24 00:56:00,32.3,25.3,30.01,ENE,68,11.0,16.0,75,0.00,,,0.00,VWS V14.01,2013-03-24 05:56:00,
2013-03-24 01:00:00,32.3,25.3,30.01,ENE,61,11.0,16.0,75,0.00,,CLR,0.00,VWS V14.01,2013-03-24 06:00:00,
2013-03-24 01:01:00,32.3,25.3,30.00,ENE,66,9.0,17.0,75,0.00,,,0.00,VWS V14.01,2013-03-24 06:01:00,
2013-03-24 01:07:00,32.3,25.3,30.00,ENE,59,9.0,17.0,75,0.00,,,0.00,VWS V14.01,2013-03-24 06:07:00,
2013-03-24 01:10:00,32.3,25.3,30.00,ENE,62,5.0,17.0,75,0.00,,CLR,0.00,VWS V14.01,2013-03-24 06:10:00,
2013-03-24 01:12:00,32.3,25.3,30.00,ENE,71,8.0,17.0,75,0.00,,,0.00,VWS V14.01,2013-03-24 06:12:00,
2013-03-24 01:17:00,32.3,25.6,30.01,ENE,60,9.0,17.0,76,0.00,,,0.00,VWS V14.01,2013-03-24 06:17:00,
2013-03-24 01:20:00,32.3,25.6,30.00,ENE,68,5.0,17.0,76,0.00,,CLR,0.00,VWS V14.01,2013-03-24 06:20:00,
2013-03-24 01:22:00,32.2,25.5,30.01,ENE,58,12.0,14.0,76,0.00,,,0.00,VWS V14.01,2013-03-24 06:22:00,
2013-03-24 01:27:00,32.1,25.7,30.01,ENE,60,7.0,14.0,77,0.00,,,0.00,VWS V14.01,2013-03-24 06:27:00,
2013-03-24 01:30:00,32.0,25.9,30.01,ENE,60,6.0,14.0,78,0.00,,CLR,0.00,VWS V14.01,2013-03-24 06:30:00,
2013-03-24 01:32:00,31.8,26.0,30.01,ENE,68,9.0,12.0,79,0.00,,,0.00,VWS V14.01,2013-03-24 06:32:00,
2013-03-24 01:38:00,31.4,26.5,30.01,NNE,32,6.0,14.0,82,0.00,,,0.00,VWS V14.01,2013-03-24 06:38:00,
2013-03-24 01:40:00,31.3,26.5,30.01,ENE,60,7.0,14.0,82,0.00,,CLR,0.00,VWS V14.01,2013-03-24 06:40:00,
2013-03-24 01:43:00,31.0,26.7,30.01,NE,53,6.0,8.0,84,0.00,,,0.00,VWS V14.01,2013-03-24 06:43:00,
2013-03-24 01:48:00,30.6,26.9,30.01,East,79,4.0,11.0,86,0.00,,,0.00,VWS V14.01,2013-03-24 06:48:00,
2013-03-24 01:50:00,30.6,26.9,30.01,ENE,57,7.0,11.0,86,0.00,,CLR,0.00,VWS V14.01,2013-03-24 06:50:00,
2013-03-24 01:53:00,30.4,27.0,30.02,ENE,63,4.0,9.0,87,0.00,,,0.00,VWS V14.01,2013-03-24 06:53:00,
2013-03-24 01:58:00,30.1,27.3,30.02,ENE,70,6.0,10.0,89,0.00,,,0.00,VWS V14.01,2013-03-24 06:58:00,
2013-03-24 02:00:00,30.1,27.3,30.02,ENE,65,6.0,10.0,89,0.00,,CLR,0.00,VWS V14.01,2013-03-24 07:00:00,
2013-03-24 02:03:00,30.0,27.4,30.02,ENE,74,4.0,9.0,90,0.00,,,0.00,VWS V14.01,2013-03-24 07:03:00,
2013-03-24 02:08:00,29.8,27.5,30.02,ENE,60,4.0,9.0,91,0.00,,,0.00,VWS V14.01,2013-03-24 07:08:00,
2013-03-24 02:10:00,29.8,27.5,30.02,ENE,68,5.0,9.0,91,0.00,,CLR,0.00,VWS V14.01,2013-03-24 07:10:00,
2013-03-24 02:13:00,29.8,27.8,30.02,ENE,65,6.0,8.0,92,0.00,,,0.00,VWS V14.01,2013-03-24 07:13:00,
2013-03-24 02:18:00,29.7,27.7,30.02,ENE,71,4.0,8.0,92,0.00,,,0.00,VWS V14.01,2013-03-24 07:18:00,
2013-03-24 02:20:00,29.7,27.7,30.02,ENE,69,4.0,8.0,92,0.00,,CLR,0.00,VWS V14.01,2013-03-24 07:20:00,
2013-03-24 02:24:00,29.6,27.8,30.01,ENE,58,5.0,10.0,93,0.00,,,0.00,VWS V14.01,2013-03-24 07:24:00,
2013-03-24 02:29:00,29.6,27.8,30.01,ENE,68,8.0,8.0,93,0.00,,,0.00,VWS V14.01,2013-03-24 07:29:00,
2013-03-24 02:30:00,29.6,27.8,30.01,ENE,69,7.0,11.0,93,0.00,,CLR,0.00,VWS V14.01,2013-03-24 07:30:00,
2013-03-24 02:34:00,29.5,27.7,30.01,NE,56,6.0,13.0,93,0.00,,,0.00,VWS V14.01,2013-03-24 07:34:00,
2013-03-24 02:39:00,29.5,27.7,30.01,ENE,72,5.0,7.0,93,0.00,,,0.00,VWS V14.01,2013-03-24 07:39:00,
2013-03-24 02:40:00,29.5,27.7,30.01,ENE,62,7.0,13.0,93,0.00,,CLR,0.00,VWS V14.01,2013-03-24 07:40:00,
2013-03-24 02:44:00,29.4,27.9,30.01,NE,54,8.0,10.0,94,0.00,,,0.00,VWS V14.01,2013-03-24 07:44:00,
2013-03-24 02:49:00,29.4,27.9,30.01,East,94,9.0,13.0,94,0.00,,,0.00,VWS V14.01,2013-03-24 07:49:00,
2013-03-24 02:50:00,29.4,27.9,30.01,ENE,68,11.0,11.0,94,0.00,,CLR,0.00,VWS V14.01,2013-03-24 07:50:00,
2013-03-24 02:55:00,29.4,27.9,30.00,ENE,64,8.0,13.0,94,0.00,,,0.00,VWS V14.01,2013-03-24 07:55:00,
2013-03-24 03:00:00,29.4,27.9,30.00,ENE,76,6.0,13.0,94,0.00,,,0.00,VWS V14.01,2013-03-24 08:00:00,
2013-03-24 03:05:00,29.3,27.8,30.00,East,82,9.0,15.0,94,0.00,,,0.00,VWS V14.01,2013-03-24 08:05:00,
2013-03-24 03:10:00,29.4,27.9,29.99,ENE,60,6.0,8.0,94,0.00,,,0.00,VWS V14.01,2013-03-24 08:10:00,
2013-03-24 03:15:00,29.4,27.9,29.99,East,82,6.0,16.0,94,0.00,,,0.00,VWS V14.01,2013-03-24 08:15:00,
2013-03-24 03:20:00,29.3,27.8,29.98,ENE,75,7.0,10.0,94,0.00,,,0.00,VWS V14.01,2013-03-24 08:20:00,
2013-03-24 03:26:00,29.3,27.8,29.98,East,82,11.0,11.0,94,0.00,,,0.00,VWS V14.01,2013-03-24 08:26:00,
2013-03-24 03:30:00,29.3,27.8,29.98,ENE,58,6.0,11.0,94,0.00,,CLR,0.00,VWS V14.01,2013-03-24 08:30:00,
2013-03-24 03:31:00,29.4,27.9,29.98,ENE,68,6.0,11.0,94,0.00,,,0.00,VWS V14.01,2013-03-24 08:31:00,
2013-03-24 03:36:00,29.4,27.9,29.97,NE,54,6.0,11.0,94,0.00,,,0.00,VWS V14.01,2013-03-24 08:36:00,
2013-03-24 03:40:00,29.4,27.9,29.97,ENE,75,5.0,13.0,94,0.00,,CLR,0.00,VWS V14.01,2013-03-24 08:40:00,
2013-03-24 03:41:00,29.4,27.9,29.97,East,90,9.0,14.0,94,0.00,,,0.00,VWS V14.01,2013-03-24 08:41:00,
2013-03-24 03:46:00,29.4,27.9,29.96,NE,51,3.0,14.0,94,0.00,,,0.00,VWS V14.01,2013-03-24 08:46:00,
2013-03-24 03:50:00,29.4,27.9,29.96,East,84,11.0,14.0,94,0.00,,CLR,0.00,VWS V14.01,2013-03-24 08:50:00,
2013-03-24 03:52:00,29.4,27.9,29.96,ENE,72,6.0,12.0,94,0.00,,,0.00,VWS V14.01,2013-03-24 08:52:00,
2013-03-24 03:57:00,29.4,27.6,29.96,NE,56,6.0,14.0,93,0.00,,,0.00,VWS V14.01,2013-03-24 08:57:00,
2013-03-24 04:00:00,29.4,27.6,29.96,ENE,68,7.0,14.0,93,0.00,,CLR,0.00,VWS V14.01,2013-03-24 09:00:00,
2013-03-24 04:02:00,29.4,27.6,29.95,ENE,72,7.0,13.0,93,0.00,,,0.00,VWS V14.01,2013-03-24 09:02:00,
2013-03-24 04:08:00,29.4,27.6,29.94,ENE,70,6.0,13.0,93,0.00,,,0.00,VWS V14.01,2013-03-24 09:08:00,
2013-03-24 04:10:00,29.4,27.6,29.94,ENE,65,7.0,13.0,93,0.00,,CLR,0.00,VWS V14.01,2013-03-24 09:10:00,
2013-03-24 04:13:00,29.4,27.6,29.94,ENE,65,3.0,11.0,93,0.00,,,0.00,VWS V14.01,2013-03-24 09:13:00,
2013-03-24 04:18:00,29.4,27.6,29.94,ENE,77,7.0,11.0,93,0.00,,,0.00,VWS V14.01,2013-03-24 09:18:00,
2013-03-24 04:20:00,29.4,27.6,29.94,ENE,75,9.0,11.0,93,0.00,,CLR,0.00,VWS V14.01,2013-03-24 09:20:00,
2013-03-24 04:23:00,29.4,27.6,29.93,ENE,67,7.0,12.0,93,0.00,,,0.00,VWS V14.01,2013-03-24 09:23:00,
2013-03-24 04:28:00,29.4,27.6,29.92,ENE,68,6.0,14.0,93,0.00,,,0.00,VWS V14.01,2013-03-24 09:28:00,
2013-03-24 04:30:00,29.4,27.6,29.92,ENE,71,10.0,14.0,93,0.00,,CLR,0.00,VWS V14.01,2013-03-24 09:30:00,
2013-03-24 04:33:00,29.3,27.5,29.92,ENE,70,10.0,14.0,93,0.00,,,0.00,VWS V14.01,2013-03-24 09:33:00,
2013-03-24 04:38:00,29.3,27.5,29.91,ENE,64,8.0,16.0,93,0.00,,,0.00,VWS V14.01,2013-03-24 09:38:00,
2013-03-24 04:40:00,29.3,27.5,29.91,ENE,64,8.0,16.0,93,0.00,,CLR,0.00,VWS V14.01,2013-03-24 09:40:00,
2013-03-24 04:44:00,29.3,27.8,29.91,East,82,7.0,15.0,94,0.00,,,0.00,VWS V14.01,2013-03-24 09:44:00,
2013-03-24 04:49:00,29.2,27.7,29.91,ENE,69,7.0,7.0,94,0.00,,,0.00,VWS V14.01,2013-03-24 09:49:00,
2013-03-24 04:50:00,29.2,27.7,29.91,ENE,75,5.0,15.0,94,0.00,,CLR,0.00,VWS V14.01,2013-03-24 09:50:00,
2013-03-24 04:54:00,29.2,27.7,29.91,NE,56,7.0,15.0,94,0.00,,,0.00,VWS V14.01,2013-03-24 09:54:00,
2013-03-24 04:59:00,29.2,27.7,29.91,East,86,8.0,11.0,94,0.00,,,0.00,VWS V14.01,2013-03-24 09:59:00,
2013-03-24 05:00:00,29.2,27.7,29.91,ENE,75,9.0,15.0,94,0.00,,CLR,0.00,VWS V14.01,2013-03-24 10:00:00,
2013-03-24 05:04:00,29.2,27.7,29.91,NE,54,6.0,11.0,94,0.00,,,0.00,VWS V14.01,2013-03-24 10:04:00,
2013-03-24 05:09:00,29.2,27.7,29.90,NE,54,4.0,8.0,94,0.00,,,0.00,VWS V14.01,2013-03-24 10:09:00,
2013-03-24 05:10:00,29.2,27.7,29.90,ENE,69,8.0,13.0,94,0.00,,CLR,0.00,VWS V14.01,2013-03-24 10:10:00,
2013-03-24 05:14:00,29.2,27.7,29.91,ENE,66,9.0,16.0,94,0.00,,,0.00,VWS V14.01,2013-03-24 10:14:00,
2013-03-24 05:19:00,29.2,27.7,29.91,ENE,72,6.0,11.0,94,0.00,,,0.00,VWS V14.01,2013-03-24 10:19:00,
2013-03-24 05:20:00,29.2,27.7,29.91,ENE,69,8.0,16.0,94,0.00,,CLR,0.00,VWS V14.01,2013-03-24 10:20:00,
2013-03-24 05:24:00,29.2,27.7,29.91,NE,51,10.0,13.0,94,0.00,,,0.00,VWS V14.01,2013-03-24 10:24:00,
2013-03-24 05:29:00,29.2,27.7,29.91,ENE,73,11.0,11.0,94,0.00,,,0.00,VWS V14.01,2013-03-24 10:29:00,
2013-03-24 05:30:00,29.3,27.8,29.91,ENE,58,9.0,13.0,94,0.00,,CLR,0.00,VWS V14.01,2013-03-24 10:30:00,
2013-03-24 05:35:00,29.3,27.8,29.91,ENE,77,7.0,14.0,94,0.00,,,0.00,VWS V14.01,2013-03-24 10:35:00,
2013-03-24 05:40:00,29.3,27.8,29.90,NE,56,5.0,14.0,94,0.00,,,0.00,VWS V14.01,2013-03-24 10:40:00,
2013-03-24 05:45:00,29.3,27.8,29.91,ENE,77,6.0,14.0,94,0.00,,,0.00,VWS V14.01,2013-03-24 10:45:00,
2013-03-24 05:50:00,29.3,27.8,29.91,ENE,70,9.0,11.0,94,0.00,,,0.00,VWS V14.01,2013-03-24 10:50:00,
2013-03-24 05:55:00,29.3,27.8,29.91,ENE,60,4.0,12.0,94,0.00,,,0.00,VWS V14.01,2013-03-24 10:55:00,
2013-03-24 06:00:00,29.3,27.8,29.91,ENE,73,6.0,11.0,94,0.00,,,0.00,VWS V14.01,2013-03-24 11:00:00,
2013-03-24 06:05:00,29.3,27.5,29.91,ENE,72,8.0,14.0,93,0.00,,,0.00,VWS V14.01,2013-03-24 11:05:00,
2013-03-24 06:10:00,29.3,27.5,29.91,ENE,68,5.0,14.0,93,0.00,,CLR,0.00,VWS V14.01,2013-03-24 11:10:00,
2013-03-24 06:11:00,29.3,27.5,29.91,ENE,75,7.0,12.0,93,0.00,,,0.00,VWS V14.01,2013-03-24 11:11:00,
2013-03-24 06:17:00,29.3,27.5,29.91,East,101,3.0,12.0,93,0.00,,,0.00,VWS V14.01,2013-03-24 11:17:00,
2013-03-24 06:20:00,29.3,27.5,29.90,ENE,58,5.0,12.0,93,0.00,,CLR,0.00,VWS V14.01,2013-03-24 11:20:00,
2013-03-24 06:22:00,29.3,27.5,29.90,ENE,65,8.0,10.0,93,0.00,,,0.00,VWS V14.01,2013-03-24 11:22:00,
2013-03-24 06:27:00,29.3,27.5,29.90,ENE,60,7.0,10.0,93,0.00,,,0.00,VWS V14.01,2013-03-24 11:27:00,
2013-03-24 06:30:00,29.3,27.5,29.90,NE,51,7.0,10.0,93,0.00,,CLR,0.00,VWS V14.01,2013-03-24 11:30:00,
2013-03-24 06:32:00,29.3,27.5,29.90,ENE,78,7.0,13.0,93,0.00,,,0.00,VWS V14.01,2013-03-24 11:32:00,
2013-03-24 06:38:00,29.3,27.5,29.89,ENE,71,6.0,13.0,93,0.00,,,0.00,VWS V14.01,2013-03-24 11:38:00,
2013-03-24 06:40:00,29.3,27.5,29.89,ENE,77,8.0,13.0,93,0.00,,CLR,0.00,VWS V14.01,2013-03-24 11:40:00,
2013-03-24 06:43:00,29.4,27.6,29.89,ENE,66,6.0,13.0,93,0.00,,,0.00,VWS V14.01,2013-03-24 11:43:00,
2013-03-24 06:48:00,29.4,27.6,29.89,ENE,58,8.0,13.0,93,0.00,,,0.00,VWS V14.01,2013-03-24 11:48:00,
2013-03-24 06:50:00,29.4,27.6,29.89,ENE,58,7.0,13.0,93,0.00,,CLR,0.00,VWS V14.01,2013-03-24 11:50:00,
2013-03-24 06:53:00,29.4,27.6,29.89,ENE,59,6.0,11.0,93,0.00,,,0.00,VWS V14.01,2013-03-24 11:53:00,
2013-03-24 06:58:00,29.4,27.6,29.89,ENE,65,8.0,12.0,93,0.00,,,0.00,VWS V14.01,2013-03-24 11:58:00,
2013-03-24 07:00:00,29.4,27.6,29.89,ENE,65,8.0,12.0,93,0.00,,CLR,0.00,VWS V14.01,2013-03-24 12:00:00,
2013-03-24 07:03:00,29.4,27.6,29.88,ENE,60,10.0,12.0,93,0.00,,,0.00,VWS V14.01,2013-03-24 12:03:00,
2013-03-24 07:08:00,29.4,27.6,29.88,ENE,66,7.0,13.0,93,0.00,,,0.00,VWS V14.01,2013-03-24 12:08:00,
2013-03-24 07:10:00,29.4,27.6,29.88,ENE,68,7.0,13.0,93,0.00,,CLR,0.00,VWS V14.01,2013-03-24 12:10:00,
2013-03-24 07:13:00,29.4,27.6,29.87,ENE,68,11.0,14.0,93,0.00,,,0.00,VWS V14.01,2013-03-24 12:13:00,
2013-03-24 07:19:00,29.5,27.7,29.86,NE,34,9.0,9.0,93,0.00,,,0.00,VWS V14.01,2013-03-24 12:19:00,
2013-03-24 07:20:00,29.5,27.7,29.86,ENE,65,9.0,16.0,93,0.00,,CLR,0.00,VWS V14.01,2013-03-24 12:20:00,
2013-03-24 07:24:00,29.5,27.7,29.86,NE,47,4.0,12.0,93,0.00,,,0.00,VWS V14.01,2013-03-24 12:24:00,
2013-03-24 07:29:00,29.5,27.7,29.85,NE,55,7.0,9.0,93,0.00,,,0.00,VWS V14.01,2013-03-24 12:29:00,
2013-03-24 07:30:00,29.5,27.7,29.85,ENE,65,7.0,12.0,93,0.00,,CLR,0.00,VWS V14.01,2013-03-24 12:30:00,
2013-03-24 07:35:00,29.5,27.7,29.86,NE,56,5.0,12.0,93,0.00,,,0.00,VWS V14.01,2013-03-24 12:35:00,
2013-03-24 07:40:00,29.5,27.7,29.87,ENE,70,5.0,6.0,93,0.00,,,0.00,VWS V14.01,2013-03-24 12:40:00,
2013-03-24 07:45:00,29.5,28.0,29.87,ENE,59,4.0,8.0,94,0.00,,,0.00,VWS V14.01,2013-03-24 12:45:00,
2013-03-24 07:50:00,29.5,28.0,29.87,ENE,62,7.0,11.0,94,0.00,,,0.00,VWS V14.01,2013-03-24 12:50:00,
2013-03-24 07:55:00,29.5,28.0,29.85,NE,42,9.0,14.0,94,0.00,,,0.00,VWS V14.01,2013-03-24 12:55:00,
2013-03-24 08:00:00,29.5,28.0,29.85,ENE,66,9.0,10.0,94,0.00,,,0.00,VWS V14.01,2013-03-24 13:00:00,
2013-03-24 08:05:00,29.5,28.0,29.85,NE,47,7.0,14.0,94,0.00,,,0.00,VWS V14.01,2013-03-24 13:05:00,
2013-03-24 08:10:00,29.5,28.0,29.84,ENE,75,10.0,14.0,94,0.00,,,0.00,VWS V14.01,2013-03-24 13:10:00,
2013-03-24 08:15:00,29.5,28.0,29.83,ENE,58,10.0,14.0,94,0.00,,,0.00,VWS V14.01,2013-03-24 13:15:00,
2013-03-24 08:20:00,29.5,28.0,29.83,ENE,61,11.0,16.0,94,0.00,,CLR,0.00,VWS V14.01,2013-03-24 13:20:00,
2013-03-24 08:21:00,29.5,28.0,29.83,NE,49,9.0,13.0,94,0.00,,RA,0.00,VWS V14.01,2013-03-24 13:21:00,
2013-03-24 08:26:00,29.6,28.1,29.82,NE,49,8.0,13.0,94,0.00,,RA,0.00,VWS V14.01,2013-03-24 13:26:00,
2013-03-24 08:30:00,29.6,28.1,29.82,ENE,63,9.0,15.0,94,0.00,,CLR,0.00,VWS V14.01,2013-03-24 13:30:00,
2013-03-24 08:31:00,29.6,28.1,29.82,NE,51,12.0,12.0,94,0.00,,RA,0.00,VWS V14.01,2013-03-24 13:31:00,
2013-03-24 08:36:00,29.6,28.1,29.81,ENE,72,14.0,19.0,94,0.00,,RA,0.00,VWS V14.01,2013-03-24 13:36:00,
2013-03-24 08:40:00,29.6,28.1,29.80,ENE,67,14.0,19.0,94,0.00,,CLR,0.00,VWS V14.01,2013-03-24 13:40:00,
2013-03-24 08:41:00,29.7,28.2,29.80,ENE,78,10.0,20.0,94,0.00,,,0.00,VWS V14.01,2013-03-24 13:41:00,
2013-03-24 08:46:00,29.8,28.3,29.80,ENE,66,9.0,20.0,94,0.00,,,0.00,VWS V14.01,2013-03-24 13:46:00,
2013-03-24 08:50:00,29.8,28.3,29.80,East,79,15.0,20.0,94,0.00,,CLR,0.00,VWS V14.01,2013-03-24 13:50:00,
2013-03-24 08:52:00,29.8,28.3,29.80,ENE,58,14.0,15.0,94,0.00,,,0.00,VWS V14.01,2013-03-24 13:52:00,
2013-03-24 08:57:00,29.8,28.3,29.81,ENE,68,6.0,17.0,94,0.00,,,0.00,VWS V14.01,2013-03-24 13:57:00,
2013-03-24 09:00:00,29.8,28.3,29.81,East,82,6.0,17.0,94,0.00,,CLR,0.00,VWS V14.01,2013-03-24 14:00:00,
2013-03-24 09:02:00,29.8,28.3,29.81,East,84,8.0,15.0,94,0.00,,,0.00,VWS V14.01,2013-03-24 14:02:00,
2013-03-24 09:07:00,29.9,28.1,29.80,ENE,75,10.0,15.0,93,0.00,,,0.00,VWS V14.01,2013-03-24 14:07:00,
2013-03-24 09:10:00,29.9,28.1,29.80,ENE,60,7.0,15.0,93,0.00,,CLR,0.00,VWS V14.01,2013-03-24 14:10:00,
2013-03-24 09:12:00,30.0,28.2,29.80,ENE,73,13.0,18.0,93,0.00,,,0.00,VWS V14.01,2013-03-24 14:12:00,
2013-03-24 09:18:00,30.0,28.0,29.80,ENE,77,15.0,20.0,92,0.00,,,0.00,VWS V14.01,2013-03-24 14:18:00,
2013-03-24 09:20:00,30.1,28.1,29.80,NE,54,6.0,20.0,92,0.00,,CLR,0.00,VWS V14.01,2013-03-24 14:20:00,
2013-03-24 09:23:00,30.1,28.1,29.80,ENE,68,13.0,16.0,92,0.00,,,0.00,VWS V14.01,2013-03-24 14:23:00,
2013-03-24 09:28:00,30.2,28.2,29.80,ENE,72,11.0,16.0,92,0.00,,,0.00,VWS V14.01,2013-03-24 14:28:00,
2013-03-24 09:30:00,30.2,28.2,29.80,NE,55,8.0,16.0,92,0.00,,CLR,0.00,VWS V14.01,2013-03-24 14:30:00,
2013-03-24 09:33:00,30.2,27.9,29.80,ENE,63,7.0,20.0,91,0.00,,,0.00,VWS V14.01,2013-03-24 14:33:00,
2013-03-24 09:38:00,30.2,27.9,29.80,East,88,8.0,20.0,91,0.00,,,0.00,VWS V14.01,2013-03-24 14:38:00,
2013-03-24 09:40:00,30.2,27.9,29.80,East,88,8.0,20.0,91,0.00,,CLR,0.00,VWS V14.01,2013-03-24 14:40:00,
2013-03-24 09:44:00,30.3,28.0,29.80,ENE,73,11.0,12.0,91,0.00,,,0.00,VWS V14.01,2013-03-24 14:44:00,
2013-03-24 09:49:00,30.4,28.1,29.79,ENE,62,8.0,12.0,91,0.00,,,0.00,VWS V14.01,2013-03-24 14:49:00,
2013-03-24 09:50:00,30.4,28.1,29.79,East,89,12.0,16.0,91,0.00,,CLR,0.00,VWS V14.01,2013-03-24 14:50:00,
2013-03-24 09:54:00,30.5,28.2,29.79,ENE,62,6.0,13.0,91,0.00,,,0.00,VWS V14.01,2013-03-24 14:54:00,
2013-03-24 09:59:00,30.6,28.3,29.79,NE,54,11.0,12.0,91,0.00,,,0.00,VWS V14.01,2013-03-24 14:59:00,
2013-03-24 10:00:00,30.6,28.3,29.79,ENE,71,10.0,13.0,91,0.00,,CLR,0.00,VWS V14.01,2013-03-24 15:00:00,
2013-03-24 10:04:00,30.6,28.0,29.79,ENE,60,6.0,14.0,90,0.00,,-RA,0.00,VWS V14.01,2013-03-24 15:04:00,
2013-03-24 10:09:00,30.6,28.0,29.78,ENE,67,8.0,13.0,90,0.00,,-RA,0.00,VWS V14.01,2013-03-24 15:09:00,
2013-03-24 10:10:00,30.6,28.0,29.78,ENE,77,7.0,15.0,90,0.00,,CLR,0.00,VWS V14.01,2013-03-24 15:10:00,
2013-03-24 10:14:00,30.7,28.1,29.78,ENE,66,9.0,13.0,90,0.00,,-RA,0.00,VWS V14.01,2013-03-24 15:14:00,
2013-03-24 10:19:00,30.8,28.2,29.78,ENE,78,12.0,17.0,90,0.00,,-RA,0.00,VWS V14.01,2013-03-24 15:19:00,
2013-03-24 10:20:00,30.8,28.2,29.78,NE,51,8.0,13.0,90,0.00,,CLR,0.00,VWS V14.01,2013-03-24 15:20:00,
2013-03-24 10:25:00,30.8,28.2,29.78,ENE,71,8.0,17.0,90,0.00,,-RA,0.00,VWS V14.01,2013-03-24 15:25:00,
2013-03-24 10:30:00,30.8,28.2,29.78,ENE,57,8.0,12.0,90,0.00,,-RA,0.00,VWS V14.01,2013-03-24 15:30:00,
2013-03-24 10:35:00,31.0,28.1,29.77,ENE,73,6.0,17.0,89,0.00,,-RA,0.00,VWS V14.01,2013-03-24 15:35:00,
2013-03-24 10:40:00,31.1,28.2,29.77,NE,44,7.0,11.0,89,0.00,,-RA,0.00,VWS V14.01,2013-03-24 15:40:00,
2013-03-24 10:45:00,31.1,28.2,29.78,NE,47,8.0,13.0,89,0.00,,-RA,0.00,VWS V14.01,2013-03-24 15:45:00,
2013-03-24 10:50:00,31.2,28.3,29.77,ENE,69,6.0,13.0,89,0.00,,CLR,0.00,VWS V14.01,2013-03-24 15:50:00,
2013-03-24 10:51:00,31.2,28.3,29.77,ENE,71,12.0,15.0,89,0.00,,-RA,0.00,VWS V14.01,2013-03-24 15:51:00,
2013-03-24 10:56:00,31.3,28.2,29.77,NE,42,6.0,15.0,88,0.00,,-RA,0.00,VWS V14.01,2013-03-24 15:56:00,
2013-03-24 11:00:00,31.3,28.2,29.77,NE,40,5.0,15.0,88,0.00,,CLR,0.00,VWS V14.01,2013-03-24 16:00:00,
2013-03-24 11:01:00,31.3,28.2,29.77,NE,51,9.0,13.0,88,0.00,,,0.00,VWS V14.01,2013-03-24 16:01:00,
2013-03-24 11:07:00,31.4,28.3,29.78,NNE,20,7.0,17.0,88,0.00,,,0.00,VWS V14.01,2013-03-24 16:07:00,
2013-03-24 11:10:00,31.4,28.3,29.78,NE,42,8.0,17.0,88,0.00,,CLR,0.00,VWS V14.01,2013-03-24 16:10:00,
2013-03-24 11:12:00,31.4,28.3,29.78,NNE,25,6.0,10.0,88,0.00,,,0.00,VWS V14.01,2013-03-24 16:12:00,
2013-03-24 11:17:00,31.4,28.3,29.78,ENE,60,8.0,16.0,88,0.00,,,0.00,VWS V14.01,2013-03-24 16:17:00,
2013-03-24 11:20:00,31.5,28.4,29.78,ENE,63,7.0,16.0,88,0.00,,CLR,0.00,VWS V14.01,2013-03-24 16:20:00,
2013-03-24 11:22:00,31.6,28.2,29.78,ENE,68,6.0,9.0,87,0.00,,,0.00,VWS V14.01,2013-03-24 16:22:00,
2013-03-24 11:27:00,31.6,28.5,29.77,NE,39,5.0,12.0,88,0.00,,,0.00,VWS V14.01,2013-03-24 16:27:00,
2013-03-24 11:30:00,31.6,28.5,29.77,ENE,58,4.0,12.0,88,0.00,,CLR,0.00,VWS V14.01,2013-03-24 16:30:00,
2013-03-24 11:32:00,31.6,28.5,29.78,ENE,60,5.0,12.0,88,0.00,,,0.00,VWS V14.01,2013-03-24 16:32:00,
2013-03-24 11:38:00,31.6,28.5,29.78,ENE,67,5.0,12.0,88,0.00,,,0.00,VWS V14.01,2013-03-24 16:38:00,
2013-03-24 11:40:00,31.6,28.2,29.78,NE,47,7.0,12.0,87,0.00,,CLR,0.00,VWS V14.01,2013-03-24 16:40:00,
2013-03-24 11:43:00,31.6,28.2,29.78,ENE,70,7.0,10.0,87,0.00,,,0.00,VWS V14.01,2013-03-24 16:43:00,
2013-03-24 11:48:00,31.6,28.5,29.77,ENE,60,7.0,10.0,88,0.00,,,0.00,VWS V14.01,2013-03-24 16:48:00,
2013-03-24 11:50:00,31.6,28.5,29.77,NE,41,4.0,10.0,88,0.00,,CLR,0.00,VWS V14.01,2013-03-24 16:50:00,
2013-03-24 11:53:00,31.6,28.5,29.77,ENE,60,5.0,12.0,88,0.00,,,0.00,VWS V14.01,2013-03-24 16:53:00,
2013-03-24 11:58:00,31.6,28.5,29.76,NNE,29,5.0,12.0,88,0.00,,,0.00,VWS V14.01,2013-03-24 16:58:00,
2013-03-24 12:00:00,31.6,28.5,29.76,NNE,29,5.0,12.0,88,0.00,,CLR,0.00,VWS V14.01,2013-03-24 17:00:00,
2013-03-24 12:04:00,31.6,28.7,29.76,ENE,65,9.0,12.0,89,0.00,,-RA,0.00,VWS V14.01,2013-03-24 17:04:00,
2013-03-24 12:09:00,31.4,28.5,29.76,NNE,33,5.0,9.0,89,0.00,,-RA,0.00,VWS V14.01,2013-03-24 17:09:00,
2013-03-24 12:10:00,31.4,28.5,29.76,ENE,59,5.0,12.0,89,0.00,,CLR,0.00,VWS V14.01,2013-03-24 17:10:00,
2013-03-24 12:14:00,31.4,28.8,29.76,NE,56,6.0,10.0,90,0.00,,-RA,0.00,VWS V14.01,2013-03-24 17:14:00,
2013-03-24 12:19:00,31.4,29.1,29.75,ENE,66,6.0,8.0,91,0.00,,-RA,0.00,VWS V14.01,2013-03-24 17:19:00,
2013-03-24 12:20:00,31.4,29.1,29.75,NNE,30,6.0,10.0,91,0.00,,CLR,0.00,VWS V14.01,2013-03-24 17:20:00,
2013-03-24 12:24:00,31.4,29.1,29.75,NE,49,6.0,10.0,91,0.00,,,0.00,VWS V14.01,2013-03-24 17:24:00,
2013-03-24 12:29:00,31.3,29.0,29.75,NE,38,8.0,9.0,91,0.00,,,0.00,VWS V14.01,2013-03-24 17:29:00,
2013-03-24 12:30:00,31.3,29.0,29.75,NE,45,3.0,10.0,91,0.00,,CLR,0.00,VWS V14.01,2013-03-24 17:30:00,
2013-03-24 12:35:00,31.2,29.1,29.75,NE,42,4.0,9.0,92,0.00,,,0.00,VWS V14.01,2013-03-24 17:35:00,
2013-03-24 12:40:00,31.3,29.2,29.75,NNE,25,2.0,6.0,92,0.00,,,0.00,VWS V14.01,2013-03-24 17:40:00,
2013-03-24 12:45:00,31.4,29.6,29.75,NNE,25,3.0,7.0,93,0.00,,,0.00,VWS V14.01,2013-03-24 17:45:00,
2013-03-24 12:50:00,31.4,29.6,29.75,NNE,25,6.0,6.0,93,0.00,,,0.00,VWS V14.01,2013-03-24 17:50:00,
2013-03-24 12:55:00,31.4,29.6,29.75,ENE,60,3.0,6.0,93,0.00,,,0.00,VWS V14.01,2013-03-24 17:55:00,
2013-03-24 13:00:00,31.4,29.9,29.75,ENE,70,3.0,4.0,94,0.00,,,0.00,VWS V14.01,2013-03-24 18:00:00,
2013-03-24 13:06:00,31.4,29.9,29.75,ENE,58,4.0,7.0,94,0.00,,,0.00,VWS V14.01,2013-03-24 18:06:00,
2013-03-24 13:10:00,31.4,29.9,29.75,NNE,32,0.0,7.0,94,0.00,,CLR,0.00,VWS V14.01,2013-03-24 18:10:00,
2013-03-24 13:11:00,31.4,29.9,29.75,NE,49,2.0,5.0,94,0.00,,,0.00,VWS V14.01,2013-03-24 18:11:00,
2013-03-24 13:16:00,31.3,29.8,29.75,NNE,31,2.0,7.0,94,0.00,,,0.00,VWS V14.01,2013-03-24 18:16:00,
2013-03-24 13:20:00,31.3,29.8,29.74,East,82,1.0,7.0,94,0.00,,CLR,0.00,VWS V14.01,2013-03-24 18:20:00,
2013-03-24 13:22:00,31.3,29.8,29.74,ENE,65,6.0,6.0,94,0.00,,,0.00,VWS V14.01,2013-03-24 18:22:00,
2013-03-24 13:27:00,31.2,29.9,29.74,NE,47,4.0,8.0,95,0.00,,,0.00,VWS V14.01,2013-03-24 18:27:00,
2013-03-24 13:30:00,31.2,29.9,29.74,ENE,60,10.0,10.0,95,0.00,,CLR,0.00,VWS V14.01,2013-03-24 18:30:00,
2013-03-24 13:32:00,31.2,29.9,29.73,NW,321,2.0,10.0,95,0.00,,,0.00,VWS V14.01,2013-03-24 18:32:00,
2013-03-24 13:37:00,31.2,29.9,29.73,NE,47,3.0,10.0,95,0.00,,,0.00,VWS V14.01,2013-03-24 18:37:00,
2013-03-24 13:40:00,31.2,29.9,29.73,NNE,26,3.0,10.0,95,0.00,,CLR,0.00,VWS V14.01,2013-03-24 18:40:00,
2013-03-24 13:42:00,31.1,29.8,29.73,NE,55,3.0,7.0,95,0.00,,,0.00,VWS V14.01,2013-03-24 18:42:00,
2013-03-24 13:48:00,31.1,29.8,29.72,NE,53,6.0,7.0,95,0.00,,,0.00,VWS V14.01,2013-03-24 18:48:00,
2013-03-24 13:50:00,31.1,29.8,29.72,NNE,27,5.0,8.0,95,0.00,,CLR,0.00,VWS V14.01,2013-03-24 18:50:00,
2013-03-24 13:53:00,31.1,29.8,29.72,NNE,20,2.0,7.0,95,0.00,,,0.00,VWS V14.01,2013-03-24 18:53:00,
2013-03-24 13:58:00,31.1,29.8,29.71,NNE,30,4.0,8.0,95,0.00,,,0.00,VWS V14.01,2013-03-24 18:58:00,
2013-03-24 14:00:00,31.1,29.8,29.71,NNE,27,6.0,9.0,95,0.00,,CLR,0.00,VWS V14.01,2013-03-24 19:00:00,
2013-03-24 14:03:00,31.1,29.8,29.71,NNE,32,7.0,8.0,95,0.00,,,0.00,VWS V14.01,2013-03-24 19:03:00,
2013-03-24 14:08:00,31.1,29.8,29.70,NE,41,2.0,10.0,95,0.00,,,0.00,VWS V14.01,2013-03-24 19:08:00,
2013-03-24 14:10:00,31.1,29.8,29.70,NE,42,4.0,10.0,95,0.00,,CLR,0.00,VWS V14.01,2013-03-24 19:10:00,
2013-03-24 14:14:00,31.2,29.9,29.70,NNW,338,2.0,6.0,95,0.00,,,0.00,VWS V14.01,2013-03-24 19:14:00,
2013-03-24 14:19:00,31.2,30.2,29.70,NE,44,3.0,4.0,96,0.00,,,0.00,VWS V14.01,2013-03-24 19:19:00,
2013-03-24 14:20:00,31.2,30.2,29.69,NNE,30,4.0,8.0,96,0.00,,CLR,0.00,VWS V14.01,2013-03-24 19:20:00,
2013-03-24 14:24:00,31.2,30.2,29.69,ENE,60,7.0,9.0,96,0.00,,,0.00,VWS V14.01,2013-03-24 19:24:00,
2013-03-24 14:29:00,31.2,30.2,29.69,ENE,57,5.0,10.0,96,0.00,,,0.00,VWS V14.01,2013-03-24 19:29:00,
2013-03-24 14:30:00,31.2,30.2,29.69,ENE,60,10.0,10.0,96,0.00,,CLR,0.00,VWS V14.01,2013-03-24 19:30:00,
2013-03-24 14:34:00,31.2,30.2,29.69,NNE,12,7.0,10.0,96,0.00,,,0.00,VWS V14.01,2013-03-24 19:34:00,
2013-03-24 14:39:00,31.2,30.2,29.69,NE,34,5.0,9.0,96,0.00,,,0.00,VWS V14.01,2013-03-24 19:39:00,
2013-03-24 14:40:00,31.2,30.2,29.69,ENE,60,6.0,10.0,96,0.00,,CLR,0.00,VWS V14.01,2013-03-24 19:40:00,
2013-03-24 14:45:00,31.1,30.1,29.69,ENE,58,13.0,14.0,96,0.00,,,0.00,VWS V14.01,2013-03-24 19:45:00,
2013-03-24 14:50:00,31.1,30.1,29.68,ENE,64,7.0,9.0,96,0.00,,,0.00,VWS V14.01,2013-03-24 19:50:00,
2013-03-24 14:55:00,31.1,30.1,29.68,NE,49,7.0,11.0,96,0.00,,,0.00,VWS V14.01,2013-03-24 19:55:00,
2013-03-24 15:00:00,31.1,30.1,29.68,NNE,33,7.0,11.0,96,0.00,,,0.00,VWS V14.01,2013-03-24 20:00:00,
2013-03-24 15:06:00,31.1,30.1,29.68,NE,43,7.0,11.0,96,0.00,,,0.00,VWS V14.01,2013-03-24 20:06:00,
2013-03-24 15:10:00,31.1,30.1,29.68,ENE,66,4.0,11.0,96,0.00,,CLR,0.00,VWS V14.01,2013-03-24 20:10:00,
2013-03-24 15:11:00,31.1,30.1,29.68,ENE,63,6.0,9.0,96,0.00,,,0.00,VWS V14.01,2013-03-24 20:11:00,
2013-03-24 15:17:00,31.2,30.2,29.68,ENE,70,5.0,11.0,96,0.00,,,0.00,VWS V14.01,2013-03-24 20:17:00,
2013-03-24 15:20:00,31.2,30.2,29.68,NE,40,5.0,11.0,96,0.00,,CLR,0.00,VWS V14.01,2013-03-24 20:20:00,
2013-03-24 15:22:00,31.2,30.2,29.68,ENE,60,7.0,9.0,96,0.00,,,0.00,VWS V14.01,2013-03-24 20:22:00,
2013-03-24 15:27:00,31.4,30.4,29.68,ENE,57,4.0,9.0,96,0.00,,,0.00,VWS V14.01,2013-03-24 20:27:00,
2013-03-24 15:30:00,31.4,30.4,29.68,NE,37,5.0,9.0,96,0.00,,CLR,0.00,VWS V14.01,2013-03-24 20:30:00,
2013-03-24 15:32:00,31.4,30.4,29.68,NE,54,7.0,11.0,96,0.00,,,0.00,VWS V14.01,2013-03-24 20:32:00,
2013-03-24 15:37:00,31.4,30.4,29.68,North,6,7.0,11.0,96,0.00,,,0.00,VWS V14.01,2013-03-24 20:37:00,
2013-03-24 15:40:00,31.4,30.4,29.68,ENE,57,8.0,11.0,96,0.00,,CLR,0.00,VWS V14.01,2013-03-24 20:40:00,
2013-03-24 15:42:00,31.4,30.4,29.69,NE,49,4.0,10.0,96,0.00,,,0.00,VWS V14.01,2013-03-24 20:42:00,
2013-03-24 15:47:00,31.4,30.4,29.69,NE,40,7.0,13.0,96,0.00,,,0.00,VWS V14.01,2013-03-24 20:47:00,
2013-03-24 15:50:00,31.3,30.3,29.69,NE,42,8.0,13.0,96,0.00,,CLR,0.00,VWS V14.01,2013-03-24 20:50:00,
2013-03-24 15:53:00,31.3,30.3,29.69,ENE,60,6.0,9.0,96,0.00,,,0.00,VWS V14.01,2013-03-24 20:53:00,
2013-03-24 15:58:00,31.4,30.4,29.69,ENE,58,5.0,9.0,96,0.00,,,0.00,VWS V14.01,2013-03-24 20:58:00,
2013-03-24 16:00:00,31.4,30.4,29.69,NNE,33,4.0,9.0,96,0.00,,CLR,0.00,VWS V14.01,2013-03-24 21:00:00,
2013-03-24 16:03:00,31.4,30.4,29.69,NNE,20,4.0,11.0,96,0.00,,,0.00,VWS V14.01,2013-03-24 21:03:00,
2013-03-24 16:08:00,31.4,30.4,29.70,NNE,31,5.0,11.0,96,0.00,,,0.00,VWS V14.01,2013-03-24 21:08:00,
2013-03-24 16:10:00,31.4,30.4,29.70,NE,44,8.0,11.0,96,0.00,,CLR,0.00,VWS V14.01,2013-03-24 21:10:00,
2013-03-24 16:13:00,31.5,30.5,29.70,NE,49,8.0,10.0,96,0.00,,,0.00,VWS V14.01,2013-03-24 21:13:00,
2013-03-24 16:18:00,31.4,30.4,29.70,NE,56,7.0,13.0,96,0.00,,,0.00,VWS V14.01,2013-03-24 21:18:00,
2013-03-24 16:20:00,31.4,30.4,29.70,ENE,64,10.0,13.0,96,0.00,,CLR,0.00,VWS V14.01,2013-03-24 21:20:00,
2013-03-24 16:23:00,31.3,30.3,29.70,NE,45,8.0,15.0,96,0.00,,,0.00,VWS V14.01,2013-03-24 21:23:00,
2013-03-24 16:28:00,31.3,30.3,29.70,NNE,20,4.0,15.0,96,0.00,,,0.00,VWS V14.01,2013-03-24 21:28:00,
2013-03-24 16:30:00,31.3,30.3,29.70,NNE,20,4.0,15.0,96,0.00,,CLR,0.00,VWS V14.01,2013-03-24 21:30:00,
2013-03-24 16:34:00,31.3,30.3,29.70,ENE,67,11.0,13.0,96,0.00,,,0.00,VWS V14.01,2013-03-24 21:34:00,
2013-03-24 16:39:00,31.3,30.3,29.70,NE,47,6.0,8.0,96,0.00,,,0.00,VWS V14.01,2013-03-24 21:39:00,
2013-03-24 16:40:00,31.3,30.3,29.70,NE,45,8.0,13.0,96,0.00,,CLR,0.00,VWS V14.01,2013-03-24 21:40:00,
2013-03-24 16:44:00,31.3,30.3,29.70,NE,43,4.0,10.0,96,0.00,,,0.00,VWS V14.01,2013-03-24 21:44:00,
2013-03-24 16:49:00,31.4,30.4,29.70,NE,55,4.0,6.0,96,0.00,,,0.00,VWS V14.01,2013-03-24 21:49:00,
2013-03-24 16:50:00,31.4,30.4,29.70,ENE,60,5.0,10.0,96,0.00,,CLR,0.00,VWS V14.01,2013-03-24 21:50:00,
2013-03-24 16:54:00,31.5,30.5,29.70,NE,49,6.0,6.0,96,0.00,,,0.00,VWS V14.01,2013-03-24 21:54:00,
2013-03-24 17:00:00,31.4,30.6,29.70,NE,41,9.0,9.0,97,0.00,,,0.00,VWS V14.01,2013-03-24 22:00:00,
2013-03-24 17:05:00,31.4,30.4,29.70,North,11,5.0,10.0,96,0.00,,,0.00,VWS V14.01,2013-03-24 22:05:00,
2013-03-24 17:10:00,31.4,30.4,29.70,NNE,23,4.0,6.0,96,0.00,,,0.00,VWS V14.01,2013-03-24 22:10:00,
2013-03-24 17:15:00,31.5,30.8,29.70,ENE,63,7.0,10.0,97,0.00,,,0.00,VWS V14.01,2013-03-24 22:15:00,
2013-03-24 17:20:00,31.5,30.8,29.70,NE,54,7.0,7.0,97,0.00,,,0.00,VWS V14.01,2013-03-24 22:20:00,
2013-03-24 17:26:00,31.4,30.4,29.70,NE,50,1.0,10.0,96,0.00,,,0.00,VWS V14.01,2013-03-24 22:26:00,
2013-03-24 17:30:00,31.4,30.6,29.70,NE,51,4.0,10.0,97,0.00,,CLR,0.00,VWS V14.01,2013-03-24 22:30:00,
2013-03-24 17:31:00,31.4,30.6,29.70,NNE,16,5.0,7.0,97,0.00,,,0.00,VWS V14.01,2013-03-24 22:31:00,
2013-03-24 17:37:00,31.4,30.6,29.71,North,7,5.0,9.0,97,0.00,,,0.00,VWS V14.01,2013-03-24 22:37:00,
2013-03-24 17:40:00,31.4,30.6,29.70,NE,53,7.0,9.0,97,0.00,,CLR,0.00,VWS V14.01,2013-03-24 22:40:00,
2013-03-24 17:42:00,31.4,30.6,29.71,ENE,73,6.0,10.0,97,0.00,,,0.00,VWS V14.01,2013-03-24 22:42:00,
2013-03-24 17:47:00,31.4,30.6,29.70,NNE,23,7.0,11.0,97,0.00,,,0.00,VWS V14.01,2013-03-24 22:47:00,
2013-03-24 17:50:00,31.4,30.6,29.70,NE,37,6.0,11.0,97,0.00,,CLR,0.00,VWS V14.01,2013-03-24 22:50:00,
2013-03-24 17:52:00,31.3,30.5,29.70,ENE,64,7.0,9.0,97,0.00,,,0.00,VWS V14.01,2013-03-24 22:52:00,
2013-03-24 17:57:00,31.3,30.5,29.71,NNE,20,5.0,9.0,97,0.00,,,0.00,VWS V14.01,2013-03-24 22:57:00,
2013-03-24 18:00:00,31.3,30.5,29.71,NE,40,5.0,10.0,97,0.00,,CLR,0.00,VWS V14.01,2013-03-24 23:00:00,
2013-03-24 18:02:00,31.3,30.5,29.71,NNE,20,5.0,9.0,97,0.00,,,0.00,VWS V14.01,2013-03-24 23:02:00,
2013-03-24 18:07:00,31.3,30.5,29.71,NE,42,4.0,9.0,97,0.00,,,0.00,VWS V14.01,2013-03-24 23:07:00,
2013-03-24 18:10:00,31.3,30.5,29.71,NE,41,2.0,9.0,97,0.00,,CLR,0.00,VWS V14.01,2013-03-24 23:10:00,
2013-03-24 18:12:00,31.3,30.5,29.72,ENE,60,4.0,7.0,97,0.00,,,0.00,VWS V14.01,2013-03-24 23:12:00,
2013-03-24 18:18:00,31.3,30.5,29.72,ENE,60,5.0,9.0,97,0.00,,,0.00,VWS V14.01,2013-03-24 23:18:00,
2013-03-24 18:20:00,31.3,30.5,29.72,NNE,30,2.0,9.0,97,0.00,,CLR,0.00,VWS V14.01,2013-03-24 23:20:00,
2013-03-24 18:23:00,31.2,30.5,29.72,NE,38,4.0,8.0,97,0.00,,,0.00,VWS V14.01,2013-03-24 23:23:00,
2013-03-24 18:28:00,31.2,30.5,29.73,NNE,27,7.0,10.0,97,0.00,,,0.00,VWS V14.01,2013-03-24 23:28:00,
2013-03-24 18:30:00,31.2,30.5,29.73,ENE,60,4.0,10.0,97,0.00,,CLR,0.00,VWS V14.01,2013-03-24 23:30:00,
2013-03-24 18:33:00,31.1,30.4,29.73,NNE,30,6.0,6.0,97,0.00,,,0.00,VWS V14.01,2013-03-24 23:33:00,
2013-03-24 18:38:00,31.0,30.2,29.73,NNE,29,2.0,10.0,97,0.00,,,0.00,VWS V14.01,2013-03-24 23:38:00,
2013-03-24 18:40:00,31.0,30.2,29.73,NNE,29,2.0,10.0,97,0.00,,CLR,0.00,VWS V14.01,2013-03-24 23:40:00,
2013-03-24 18:44:00,31.1,30.4,29.74,NNE,31,0.0,5.0,97,0.00,,,0.00,VWS V14.01,2013-03-24 23:44:00,
2013-03-24 18:49:00,31.1,30.4,29.74,NNE,25,2.0,3.0,97,0.00,,,0.00,VWS V14.01,2013-03-24 23:49:00,
2013-03-24 18:50:00,31.1,30.4,29.74,NNE,13,3.0,11.0,97,0.00,,CLR,0.00,VWS V14.01,2013-03-24 23:50:00,
2013-03-24 18:54:00,31.0,30.2,29.74,NE,37,7.0,9.0,97,0.00,,,0.00,VWS V14.01,2013-03-24 23:54:00,
2013-03-24 18:59:00,31.0,30.2,29.74,NE,54,6.0,7.0,97,0.00,,,0.00,VWS V14.01,2013-03-24 23:59:00,
2013-03-24 19:00:00,31.0,30.2,29.74,NNE,18,4.0,9.0,97,0.00,,CLR,0.00,VWS V14.01,2013-03-25 00:00:00,
2013-03-24 19:04:00,30.9,30.1,29.74,NNE,23,4.0,10.0,97,0.00,,,0.00,VWS V14.01,2013-03-25 00:04:00,
2013-03-24 19:09:00,30.9,30.1,29.74,North,8,4.0,6.0,97,0.00,,,0.00,VWS V14.01,2013-03-25 00:09:00,
2013-03-24 19:10:00,30.9,30.1,29.74,NE,41,4.0,11.0,97,0.00,,CLR,0.00,VWS V14.01,2013-03-25 00:10:00,
2013-03-24 19:15:00,30.9,30.1,29.75,NE,45,3.0,8.0,97,0.00,,,0.00,VWS V14.01,2013-03-25 00:15:00,
2013-03-24 19:20:00,30.8,30.0,29.75,NNE,19,2.0,7.0,97,0.00,,,0.00,VWS V14.01,2013-03-25 00:20:00,
2013-03-24 19:25:00,30.8,30.0,29.75,NE,42,3.0,8.0,97,0.00,,,0.00,VWS V14.01,2013-03-25 00:25:00,
2013-03-24 19:30:00,30.9,30.1,29.75,NE,46,6.0,8.0,97,0.00,,,0.00,VWS V14.01,2013-03-25 00:30:00,
2013-03-24 19:35:00,31.0,30.2,29.75,NE,51,8.0,9.0,97,0.00,,,0.00,VWS V14.01,2013-03-25 00:35:00,
2013-03-24 19:40:00,30.9,30.1,29.75,NE,47,5.0,12.0,97,0.00,,CLR,0.00,VWS V14.01,2013-03-25 00:40:00,
2013-03-24 19:41:00,30.9,30.1,29.75,NE,40,11.0,11.0,97,0.00,,,0.00,VWS V14.01,2013-03-25 00:41:00,
2013-03-24 19:46:00,31.0,30.2,29.75,NNE,29,3.0,11.0,97,0.00,,,0.00,VWS V14.01,2013-03-25 00:46:00,
2013-03-24 19:50:00,31.0,30.2,29.76,North,8,2.0,11.0,97,0.00,,CLR,0.00,VWS V14.01,2013-03-25 00:50:00,
2013-03-24 19:51:00,31.0,30.2,29.76,NE,42,3.0,7.0,97,0.00,,,0.00,VWS V14.01,2013-03-25 00:51:00,
2013-03-24 19:56:00,30.9,30.1,29.76,NNE,18,6.0,9.0,97,0.00,,,0.00,VWS V14.01,2013-03-25 00:56:00,
2013-03-24 20:00:00,30.9,30.1,29.76,NNE,30,5.0,9.0,97,0.00,,CLR,0.00,VWS V14.01,2013-03-25 01:00:00,
2013-03-24 20:02:00,30.8,30.0,29.76,ENE,60,6.0,9.0,97,0.00,,,0.00,VWS V14.01,2013-03-25 01:02:00,
2013-03-24 20:07:00,30.7,30.0,29.76,NE,41,4.0,13.0,97,0.00,,,0.00,VWS V14.01,2013-03-25 01:07:00,
2013-03-24 20:10:00,30.7,30.0,29.76,NNE,18,2.0,13.0,97,0.00,,CLR,0.00,VWS V14.01,2013-03-25 01:10:00,
2013-03-24 20:12:00,30.7,30.0,29.76,NNW,327,2.0,4.0,97,0.00,,,0.00,VWS V14.01,2013-03-25 01:12:00,
2013-03-24 20:17:00,30.8,30.0,29.76,NW,312,2.0,5.0,97,0.00,,,0.00,VWS V14.01,2013-03-25 01:17:00,
2013-03-24 20:20:00,30.8,30.0,29.77,NW,312,4.0,6.0,97,0.00,,CLR,0.00,VWS V14.01,2013-03-25 01:20:00,
2013-03-24 20:22:00,30.8,30.0,29.77,NNE,20,5.0,7.0,97,0.00,,,0.00,VWS V14.01,2013-03-25 01:22:00,
2013-03-24 20:27:00,30.7,30.0,29.77,ENE,60,6.0,8.0,97,0.00,,,0.00,VWS V14.01,2013-03-25 01:27:00,
2013-03-24 20:30:00,30.7,30.0,29.77,ENE,66,7.0,8.0,97,0.00,,CLR,0.00,VWS V14.01,2013-03-25 01:30:00,
2013-03-24 20:32:00,30.6,29.9,29.77,NNE,18,6.0,8.0,97,0.00,,,0.00,VWS V14.01,2013-03-25 01:32:00,
2013-03-24 20:38:00,30.6,29.9,29.77,NE,55,6.0,10.0,97,0.00,,,0.00,VWS V14.01,2013-03-25 01:38:00,
2013-03-24 20:40:00,30.6,29.9,29.77,NE,55,6.0,10.0,97,0.00,,CLR,0.00,VWS V14.01,2013-03-25 01:40:00,
2013-03-24 20:43:00,30.6,29.9,29.77,NNE,27,4.0,11.0,97,0.00,,,0.00,VWS V14.01,2013-03-25 01:43:00,
2013-03-24 20:48:00,30.6,29.9,29.77,NNE,33,2.0,11.0,97,0.00,,,0.00,VWS V14.01,2013-03-25 01:48:00,
2013-03-24 20:50:00,30.5,29.8,29.77,NNW,332,2.0,11.0,97,0.00,,CLR,0.00,VWS V14.01,2013-03-25 01:50:00,
2013-03-24 20:53:00,30.5,29.8,29.77,North,7,2.0,5.0,97,0.00,,,0.00,VWS V14.01,2013-03-25 01:53:00,
2013-03-24 20:58:00,30.5,29.8,29.77,ENE,60,4.0,7.0,97,0.00,,,0.00,VWS V14.01,2013-03-25 01:58:00,
2013-03-24 21:00:00,30.5,29.8,29.77,NE,40,4.0,7.0,97,0.00,,CLR,0.00,VWS V14.01,2013-03-25 02:00:00,
2013-03-24 21:03:00,30.4,29.6,29.77,NNW,345,4.0,7.0,97,0.00,,,0.00,VWS V14.01,2013-03-25 02:03:00,
2013-03-24 21:08:00,30.4,29.6,29.78,NE,36,5.0,7.0,97,0.00,,,0.00,VWS V14.01,2013-03-25 02:08:00,
2013-03-24 21:10:00,30.4,29.6,29.78,North,355,4.0,7.0,97,0.00,,CLR,0.00,VWS V14.01,2013-03-25 02:10:00,
2013-03-24 21:13:00,30.4,29.6,29.78,North,349,4.0,9.0,97,0.00,,,0.00,VWS V14.01,2013-03-25 02:13:00,
2013-03-24 21:19:00,30.4,29.6,29.78,NE,46,3.0,3.0,97,0.00,,,0.00,VWS V14.01,2013-03-25 02:19:00,
2013-03-24 21:20:00,30.4,29.6,29.78,NW,323,3.0,9.0,97,0.00,,CLR,0.00,VWS V14.01,2013-03-25 02:20:00,
2013-03-24 21:24:00,30.4,29.6,29.78,NNE,19,2.0,7.0,97,0.00,,,0.00,VWS V14.01,2013-03-25 02:24:00,
2013-03-24 21:29:00,30.4,29.6,29.78,North,353,4.0,4.0,97,0.00,,,0.00,VWS V14.01,2013-03-25 02:29:00,
2013-03-24 21:30:00,30.4,29.6,29.78,NE,49,3.0,7.0,97,0.00,,CLR,0.00,VWS V14.01,2013-03-25 02:30:00,
2013-03-24 21:34:00,30.4,29.6,29.78,NNW,338,4.0,9.0,97,0.00,,,0.00,VWS V14.01,2013-03-25 02:34:00,
2013-03-24 21:39:00,30.4,29.6,29.78,NNE,25,5.0,6.0,97,0.00,,,0.00,VWS V14.01,2013-03-25 02:39:00,
2013-03-24 21:40:00,30.4,29.6,29.78,North,354,2.0,9.0,97,0.00,,CLR,0.00,VWS V14.01,2013-03-25 02:40:00,
2013-03-24 21:44:00,30.4,29.6,29.79,NNE,30,2.0,6.0,97,0.00,,,0.00,VWS V14.01,2013-03-25 02:44:00,
2013-03-24 21:50:00,30.3,29.5,29.79,North,356,2.0,7.0,97,0.00,,,0.00,VWS V14.01,2013-03-25 02:50:00,
2013-03-24 21:55:00,30.4,29.6,29.79,NNE,32,4.0,8.0,97,0.00,,,0.00,VWS V14.01,2013-03-25 02:55:00,
2013-03-24 22:00:00,30.4,29.6,29.79,NW,316,1.0,2.0,97,0.00,,,0.00,VWS V14.01,2013-03-25 03:00:00,
2013-03-24 22:05:00,30.4,29.6,29.79,North,356,1.0,7.0,97,0.00,,,0.00,VWS V14.01,2013-03-25 03:05:00,
2013-03-24 22:10:00,30.4,29.6,29.79,NNE,20,5.0,9.0,97,0.00,,,0.00,VWS V14.01,2013-03-25 03:10:00,
2013-03-24 22:15:00,30.3,29.5,29.79,North,351,5.0,9.0,97,0.00,,,0.00,VWS V14.01,2013-03-25 03:15:00,
2013-03-24 22:20:00,30.3,29.5,29.79,North,9,4.0,7.0,97,0.00,,,0.00,VWS V14.01,2013-03-25 03:20:00,
2013-03-24 22:25:00,30.3,29.5,29.79,ENE,68,1.0,9.0,97,0.00,,,0.00,VWS V14.01,2013-03-25 03:25:00,
2013-03-24 22:30:00,30.3,29.5,29.79,NW,312,4.0,9.0,97,0.00,,CLR,0.00,VWS V14.01,2013-03-25 03:30:00,
2013-03-24 22:31:00,30.3,29.5,29.79,NE,37,6.0,6.0,97,0.00,,,0.00,VWS V14.01,2013-03-25 03:31:00,
2013-03-24 22:36:00,30.2,29.5,29.79,NNE,26,3.0,8.0,97,0.00,,,0.00,VWS V14.01,2013-03-25 03:36:00,
2013-03-24 22:40:00,30.2,29.5,29.79,NW,321,0.0,8.0,97,0.00,,CLR,0.00,VWS V14.01,2013-03-25 03:40:00,
2013-03-24 22:41:00,30.1,29.4,29.79,NNE,33,4.0,7.0,97,0.00,,,0.00,VWS V14.01,2013-03-25 03:41:00,
2013-03-24 22:46:00,30.1,29.4,29.79,WNW,290,4.0,7.0,97,0.00,,,0.00,VWS V14.01,2013-03-25 03:46:00,
2013-03-24 22:50:00,30.0,29.2,29.79,NNE,27,2.0,7.0,97,0.00,,CLR,0.00,VWS V14.01,2013-03-25 03:50:00,
2013-03-24 22:51:00,30.0,29.2,29.80,North,352,5.0,7.0,97,0.00,,,0.00,VWS V14.01,2013-03-25 03:51:00,
2013-03-24 22:56:00,29.9,29.1,29.79,North,9,2.0,7.0,97,0.00,,,0.00,VWS V14.01,2013-03-25 03:56:00,
2013-03-24 23:00:00,29.9,29.1,29.79,NNE,32,3.0,6.0,97,0.00,,,0.00,VWS V14.01,2013-03-25 04:00:00,
2013-03-24 23:01:00,29.9,29.1,29.80,WNW,301,5.0,6.0,97,0.00,,,0.00,VWS V14.01,2013-03-25 04:01:00,
2013-03-24 23:02:00,29.8,29.0,29.80,NNE,13,4.0,7.0,97,0.00,,,0.00,VWS V14.01,2013-03-25 04:02:00,
2013-03-24 23:04:00,29.8,29.0,29.80,NNE,26,2.0,7.0,97,0.00,,,0.00,VWS V14.01,2013-03-25 04:04:00,
2013-03-24 23:09:00,29.8,29.0,29.80,NE,36,3.0,4.0,97,0.00,,,0.00,VWS V14.01,2013-03-25 04:09:00,
2013-03-24 23:10:00,29.8,29.0,29.79,NE,41,3.0,7.0,97,0.00,,CLR,0.00,VWS V14.01,2013-03-25 04:10:00,
2013-03-24 23:14:00,29.8,29.0,29.80,NNE,16,2.0,4.0,97,0.00,,,0.00,VWS V14.01,2013-03-25 04:14:00,
2013-03-24 23:19:00,29.8,29.0,29.79,NNW,342,2.0,5.0,97,0.00,,,0.00,VWS V14.01,2013-03-25 04:19:00,
2013-03-24 23:20:00,29.8,29.0,29.80,NW,312,4.0,5.0,97,0.00,,CLR,0.00,VWS V14.01,2013-03-25 04:20:00,
2013-03-24 23:24:00,29.7,29.0,29.80,NW,309,2.0,6.0,97,0.00,,,0.00,VWS V14.01,2013-03-25 04:24:00,
2013-03-24 23:30:00,29.7,29.0,29.80,North,1,1.0,3.0,97,0.00,,,0.00,VWS V14.01,2013-03-25 04:30:00,
2013-03-24 23:35:00,29.7,29.0,29.80,NE,40,2.0,7.0,97,0.00,,,0.00,VWS V14.01,2013-03-25 04:35:00,
2013-03-24 23:40:00,29.7,29.0,29.80,NNE,19,2.0,10.0,97,0.00,,,0.00,VWS V14.01,2013-03-25 04:40:00,
2013-03-24 23:45:00,29.6,28.9,29.80,NW,315,2.0,10.0,97,0.00,,,0.00,VWS V14.01,2013-03-25 04:45:00,
2013-03-24 23:50:00,29.6,28.9,29.80,NW,326,3.0,6.0,97,0.00,,,0.00,VWS V14.01,2013-03-25 04:50:00,
2013-03-24 23:55:00,29.6,28.9,29.80,North,11,3.0,9.0,97,0.00,,,0.00,VWS V14.01,2013-03-25 04:55:00,